Location: Mizzole
(45.4833°N, 11.0500°E)
Time: 05:39:19
(UTC+00:00)

STARLINK-60 - Pass Details

Date: 21 October 2019
Orbit: 419 x 428 km, 53.0° (Epoch: 13 November)

Event Time Altitude Azimuth Distance (km) Brightness Sun altitude
Rises 18:15:04 0° 299° (WNW) 2,389 8.1 -20.7°
Reaches altitude 10° 18:17:12 10° 293° (WNW) 1,523 6.9 -21.1°
Maximum altitude 18:20:31 48° 219° (SW) 569 3.8 -21.7°
Enters shadow 18:20:37 48° 212° (SSW) 570 3.8 -21.7°
